Home   Weather   Neusiedl am See   Past weeks

Flag for Austria Past Weather in Neusiedl am See, Burgenland, Austria — Yesterday and Last 2 Weeks

Now
61 °F

Cool.


Feels Like: 61 °F
Forecast: 51 / 76 °F
Wind: 2 mph from West

Location: Eisenstadt

Current Time: Sep 29, 2016 at 10:40:02 AM

Latest Report: Sep 29, 2016 at 9:00 AM


Visibility: N/A

Pressure: 30.26 "Hg

Humidity: 70%

Dew Point: 51 °F

Location of Neusiedl am SeeLocation

Past Weather in Neusiedl am See — Graph

°F

Neusiedl am See Temperature Yesterday

Maximum temperature yesterday: 76 °F (at 4:00 PM)
Minimum temperature yesterday: 51 °F (at 7:00 AM)
Average temperature yesterday: 61 °F

High & Low Weather Summary for the Past Weeks

 TemperatureHumidityPressure
High82 °F (Sep 15, 3:00 PM)95% (Sep 18, 7:00 AM)30.38 "Hg (Sep 18, 7:00 AM)
Low44 °F (Sep 23, 7:00 AM)35% (Sep 28, 4:00 PM)29.75 "Hg (Sep 17, 5:00 AM)
Average61 °F71%30.07 "Hg
* Reported Sep 14 9:00 AM — Sep 29 9:00 AM, Neusiedl am See, Weather by CustomWeather, © 2016

Note: Actual official high and low records may vary slightly from our data, if they occured in-between our weather recording intervals... More about our weather records

Advertising

Neusiedl am See Weather History for the Previous 24 Hours

Scroll right to see more
 ConditionsComfort  
Time TempWeatherWind HumidityBarometerVisibility
9:00 AM
Thu, Sep 29
61 °FCool.2 mph70%30.26 "HgN/A
8:00 AM59 °FCool.3 mph79%30.26 "HgN/A
7:00 AM58 °FCool.5 mph80%30.27 "HgN/A
6:00 AM59 °FPassing clouds.3 mph77%30.27 "Hg6 mi
5:00 AM59 °FPassing clouds.3 mph78%30.28 "Hg6 mi
4:00 AM56 °FClear.1 mph79%30.27 "Hg6 mi
3:00 AM55 °FCool.3 mph82%30.28 "HgN/A
2:00 AM59 °FPassing clouds.3 mph79%30.28 "Hg6 mi
1:00 AM58 °FCool.3 mph79%30.29 "HgN/A
12:00 AM60 °FCool.5 mph74%30.29 "HgN/A
11:00 PM
Wed, Sep 28
61 °FPassing clouds.5 mph73%30.29 "Hg6 mi
10:00 PM60 °FCool.3 mph76%30.29 "HgN/A
9:00 PM61 °FCool.5 mph72%30.29 "HgN/A
8:00 PM61 °FPassing clouds.3 mph71%30.29 "Hg9 mi
7:00 PM64 °FOvercast.5 mph66%30.29 "Hg9 mi
6:00 PM69 °FMild.1 mph59%30.28 "HgN/A
5:00 PM74 °FOvercast.1 mph39%30.26 "Hg9 mi
4:00 PM76 °FMild.1 mph35%30.27 "HgN/A
3:00 PM75 °FMild.2 mph38%30.28 "HgN/A
2:00 PM72 °FPartly sunny.2 mph43%30.29 "Hg12 mi
1:00 PM71 °FMild.2 mph46%30.33 "HgN/A
12:00 PM71 °FMild.1 mph46%30.35 "HgN/A
11:00 AM66 °FPartly sunny.1 mph58%30.37 "Hg12 mi
10:00 AM60 °FCool.1 mph69%30.38 "HgN/A
Weather by CustomWeather, © 2016

See weather overviewHow to use our weather pages